Weather Roundup
Issued by NWS Chicago, IL

Home | Current Version | Previous Version | Text Only | Print | Product List | Glossary On
Versions: 1 2 3 4 5 6 7 8 9 10 11 12 13 14 15 16 17 18 19 20 21 22 23 24 25 26 27 28 29 30 31 32 33 34 35 36 37 38 39 40 41 42 43 44 45 46 47 48 49 50
000
NZUS59 KLOT 300710
HRRLOT

CHICAGO AREA WEATHER ROUNDUP
NATIONAL WEATHER SERVICE CHICAGO/ROMEOVILLE IL
200 AM CDT SAT AUG 30 2014

NOTE: "FAIR" INDICATES FEW OR NO CLOUDS BELOW 12,000 FEET WITH NO
SIGNIFICANT WEATHER AND/OR OBSTRUCTIONS TO VISIBILITY.

* THESE STATIONS ARE NOT UNDER NWS QUALITY CONTROL. THEY ALSO MAY NOT
  REPORT WEATHER SUCH AS PRECIPITATION OR FOG.

ILZ005-006-012>014-019>023-300800-
NORTHEAST ILLINOIS

CITY           SKY/WX    TMP DP  RH WIND       PRES   REMARKS
OHARE          CLOUDY    74  67  78 S10       29.84F
MIDWAY         CLOUDY    76  71  85 S8        29.85F
AURORA         CLOUDY    73  68  84 S7        29.84F
LANSING*         N/A    N/A N/A N/A MISG        N/A
JOLIET*        CLOUDY    73  69  88 S6        29.86F
WAUKEGAN       CLOUDY    75  68  78 S10       29.83F
DUPAGE AIRPORT CLOUDY    74  69  85 S9        29.83F
WHEELING       CLOUDY    76  69  79 S10       29.85F
KANKAKEE*      MOCLDY    74  70  87 S10G16    29.88F
MORRIS*        CLOUDY    73  73  97 S7        29.84F
LEWIS AIRPORT* CLOUDY    72  71  96 S9        29.85F
NORTHERLY IS     N/A     75  68  78 S8          N/A
$$

WIZ051-052-058>065-066-070>072-300800-
SOUTHEAST WISCONSIN

CITY           SKY/WX    TMP DP  RH WIND       PRES   REMARKS
MILWAUKEE      CLOUDY    73  69  87 S7        29.82F
KENOSHA*       CLOUDY    74  69  85 S8        29.83F
RACINE*        CLOUDY    73  69  87 S7        29.84F
BURLINGTON     CLOUDY    70  68  93 S5        29.82F
WAUKESHA       CLOUDY    70  68  94 S8        29.82F
WEST BEND      CLOUDY    72  66  83 S8        29.81F
$$

INZ001>003-010>013-019-020-300800-
NORTHWEST INDIANA

CITY           SKY/WX    TMP DP  RH WIND       PRES   REMARKS
GARY*          PTCLDY    75  69  80 S8        29.88F
MICHIGAN CITY* NOT AVBL
RENSSELAER*    NOT AVBL
VALPARAISO     PTCLDY    72  69  90 S8        29.91F
$$

LMZ740>746-300800-
SOUTHERN LAKE MICHIGAN

STATION/POSITION TIME  SKY/WX   TEMP WIND        PRES    VSBY
                                AIR  DIR/SP/G
                 (UTC)          (F)  (DEG/KT/KT) (MB)    (MI)
HARRISON CRIB    0700            74  190/ 17/ 19   N/A
BURNHAM HARBOR   0700            74  160/  4/ 13   N/A
CALUMET HARBOR   0700            75  200/  8/ 13 1010.3F
BURNS HARBOR     NOT AVBL
MICHIGAN CITY    0700            73  140/ 11/ 17   N/A
$$

ABBREVIATIONS USED IN REMARKS
   TC - TEMPERATURE IN CELSIUS
  WCI - WIND CHILL INDEX
   HX - HEAT INDEX
  VSB - VISIBILITY
$$


USA.gov is the U.S. government's official web portal to all federal, state and local government web resources and services.